Change the Weather History Date:

Wednesday, January 23, 2013

  Actual Average Record
Temperature  
Mean Temperature 68 °F 61 °F  
Max Temperature 80 °F 71 °F 90 °F (1943)
Min Temperature 56 °F 50 °F 22 °F (1896)
Degree Days  
Heating Degree Days 0 6  
Month to date heating degree days 176 154  
Since 1 July heating degree days 289 402  
Cooling Degree Days 3 2  
Month to date cooling degree days 19 42  
Year to date cooling degree days 19 42  
Growing Degree Days 18 (Base 50)    
Moisture  
Dew Point 59 °F    
Average Humidity 77    
Maximum Humidity 100    
Minimum Humidity 54    
Precipitation  
Precipitation 0.00 in 0.05 in 1.17 in (1975)
Month to date precipitation 2.54 0.71  
Year to date precipitation 2.54 0.71  
Sea Level Pressure  
Sea Level Pressure 30.25 in    
Wind  
Wind Speed 7 mph (ESE)    
Max Wind Speed 18 mph    
Max Gust Speed 21 mph    
Visibility 8 miles    
Events Fog    
T = Trace of Precipitation, MM = Missing Value Source: NWS Daily Summary

Daily Weather History Graph

Daily Weather History Graph

Search for Another Location

Airport or City:

Trip Planner

Search our weather history database for the weather conditions in past years. The results will help you decide how hot, cold, wet, or windy it might be!

Date:

Astronomy

Jan. 23, 2013 Rise Set
Actual Time 7:18 AM CST 6:07 PM CST
Civil Twilight 6:53 AM CST 6:31 PM CST
Nautical Twilight 6:25 AM CST 6:59 PM CST
Astronomical Twilight 5:58 AM CST 7:27 PM CST
Moon 3:22 PM CST (1/23) 4:26 AM CST (1/23)
Length of Visible Light 11h 37m
Length of Day
10h 48m
Waxing Gibbous, 89% of the Moon is Illuminated
Jan 23
Waxing Gibbous
Jan 26
Full
Feb 3
Last Quarter
Feb 10
New
Feb 17
First Quarter

Hourly Weather History & Observations

Time (CST) Temp. Heat Index Dew Point Humidity Pressure Visibility Wind Dir Wind Speed Gust Speed Precip Events Conditions
12:00 AM 57.2 °F - 55.4 °F 94% 30.24 in 10.0 mi Calm Calm - N/A   Mostly Cloudy
12:09 AM 59.0 °F - 55.4 °F 88% 30.24 in 10.0 mi Calm Calm - N/A   Scattered Clouds
12:52 AM 57.2 °F - 55.4 °F 94% 30.23 in 10.0 mi North 3.5 mph - N/A   Scattered Clouds
1:02 AM 57.2 °F - 55.4 °F 94% 30.24 in 10.0 mi North 3.5 mph - N/A   Mostly Cloudy
1:44 AM 57.2 °F - 55.4 °F 94% 30.24 in 10.0 mi North 3.5 mph - N/A   Scattered Clouds
1:52 AM 57.9 °F - 55.9 °F 93% 30.24 in 10.0 mi North 3.5 mph - N/A   Scattered Clouds
2:52 AM 59.0 °F - 57.0 °F 93% 30.23 in 10.0 mi NE 3.5 mph - N/A   Mostly Cloudy
3:04 AM 60.8 °F - 57.2 °F 88% 30.23 in 10.0 mi NE 4.6 mph - N/A   Mostly Cloudy
3:52 AM 59.0 °F - 57.0 °F 93% 30.22 in 7.0 mi Calm Calm - N/A   Clear
4:52 AM 57.0 °F - 55.9 °F 96% 30.23 in 8.0 mi Calm Calm - N/A   Clear
5:23 AM 57.2 °F - 57.2 °F 100% 30.22 in 1.8 mi East 3.5 mph - N/A   Clear
5:39 AM 57.2 °F - 55.4 °F 94% 30.23 in 0.8 mi East 3.5 mph - N/A   Clear
5:52 AM 57.0 °F - 55.9 °F 96% 30.23 in 0.5 mi ENE 3.5 mph - N/A Fog Fog
6:27 AM 57.2 °F - 57.2 °F 100% 30.25 in 0.5 mi NE 3.5 mph - N/A Fog Fog
6:52 AM 57.0 °F - 55.9 °F 96% 30.26 in 0.5 mi Calm Calm - N/A Fog Fog
7:02 AM 57.2 °F - 55.4 °F 94% 30.26 in 0.5 mi East 3.5 mph - N/A Fog Fog
7:24 AM 57.2 °F - 55.4 °F 94% 30.26 in 0.2 mi ENE 5.8 mph - N/A Fog Fog
7:52 AM 57.9 °F - 57.9 °F 100% 30.27 in 1.0 mi Calm Calm - N/A   Mist
7:57 AM 57.2 °F - 57.2 °F 100% 30.27 in 2.0 mi East 3.5 mph - N/A   Clear
8:06 AM 59.0 °F - 57.2 °F 94% 30.28 in 3.0 mi East 3.5 mph - N/A   Clear
8:52 AM 63.0 °F - 62.1 °F 97% 30.29 in 9.0 mi ENE 3.5 mph - N/A   Clear
9:17 AM 64.4 °F - 62.6 °F 94% 30.30 in 10.0 mi ESE 4.6 mph - N/A   Scattered Clouds
9:52 AM 71.1 °F - 63.0 °F 75% 30.31 in 10.0 mi SSE 9.2 mph - N/A   Mostly Cloudy
10:35 AM 73.4 °F - 62.6 °F 69% 30.31 in 10.0 mi SSE 11.5 mph - N/A   Scattered Clouds
10:52 AM 75.9 °F - 63.0 °F 64% 30.31 in 10.0 mi SSE 13.8 mph - N/A   Scattered Clouds
11:16 AM 75.2 °F - 62.6 °F 65% 30.31 in 10.0 mi SSE 12.7 mph - N/A   Mostly Cloudy
11:49 AM 77.0 °F - 62.6 °F 61% 30.30 in 10.0 mi SSE 13.8 mph - N/A   Overcast
11:52 AM 77.0 °F - 63.0 °F 62% 30.30 in 10.0 mi SSE 12.7 mph - N/A   Overcast
12:52 PM 78.1 °F - 61.0 °F 56% 30.26 in 10.0 mi South 10.4 mph - N/A   Mostly Cloudy
1:52 PM 77.0 °F - 61.0 °F 58% 30.24 in 10.0 mi SSE 10.4 mph - N/A   Overcast
2:52 PM 78.1 °F - 62.1 °F 58% 30.23 in 10.0 mi SSE 9.2 mph - N/A   Overcast
3:52 PM 80.1 °F 81.2 °F 62.1 °F 54% 30.21 in 10.0 mi SSE 10.4 mph - N/A   Scattered Clouds
4:52 PM 75.0 °F - 62.1 °F 64% 30.21 in 10.0 mi SE 17.3 mph - N/A   Mostly Cloudy
5:52 PM 73.0 °F - 62.1 °F 68% 30.21 in 10.0 mi SE 13.8 mph - N/A   Scattered Clouds
6:52 PM 70.0 °F - 61.0 °F 73% 30.23 in 10.0 mi SE 11.5 mph - N/A   Clear
7:52 PM 66.9 °F - 61.0 °F 81% 30.25 in 10.0 mi SE 8.1 mph - N/A   Clear
8:52 PM 64.9 °F - 60.1 °F 84% 30.26 in 10.0 mi SE 5.8 mph - N/A   Clear
9:52 PM 62.1 °F - 59.0 °F 90% 30.26 in 10.0 mi SE 4.6 mph - N/A   Clear
10:52 PM 61.0 °F - 59.0 °F 93% 30.26 in 10.0 mi SE 6.9 mph - N/A   Clear
11:52 PM 59.0 °F - 57.0 °F 93% 30.25 in 10.0 mi SSE 8.1 mph - N/A   Clear